{"data":{"norad_id":68917,"epoch":"2026-05-25T02:56:14.045856Z","epoch_age_seconds":60879,"freshness":"FRESH","line1":"1 68917U 26097Y   26145.12238479  .00079427  00000+0  14462-2 0  9996","line2":"2 68917  97.2852 340.8486 0001281  83.3677 276.7720 15.49213307  3947","mean_motion":15.49213307,"eccentricity":0.0001281,"inclination_deg":97.2852,"raan_deg":340.8486,"arg_perigee_deg":83.3677,"mean_anomaly_deg":276.772,"bstar":0.0014462,"rev_number":394,"period_min":92.950402213399,"perigee_km":418.15545288046,"apogee_km":419.89688608448,"semimajor_km":6797.1631694825,"source":"CELESTRAK","updated_at":"2026-05-25T13:38:22.071010Z"}}